SES-5 (EGNOS/PRN 136)

Last updated on Thu Oct 30 2025 00:03:29 GMT+0000 (Coordinated Universal Time)

1 38652U 12036A 25302.25797334 .00000044 00000+0 00000+0 0 9994 2 38652 0.0576 301.5739 0002036 270.1454 284.0068 1.00271758 42157
UTC large
Height (km)
Speed (km/s)
/
Latitude / Longitude
Inclination (degrees)
Orbital Period (minutes)
Azimuth
Elevation
Range (km)
Doppler Factor

Next 0 passes for location: London (51.5072 / 0.1276)

Sorry there are no passes over London.